Location: Camoruquito
(9.9001°N, 67.3564°W)
Time: 21:10:09
(UTC+00:00)

Cosmos 1939 Rocket - Visible Passes

Search period start: 18 July 2024 00:00
Search period end: 28 July 2024 00:00
Orbit: 512 x 558 km, 97.4° (Epoch: 17 July)

Date Brightness Start Highest point End Pass type
(mag) Time Alt. Az. Time Alt. Az. Time Alt. Az.
18 Jul 3.1 08:39:21 10° NNE 08:43:02 60° ESE 08:44:09 39° SSE visible
19 Jul 3.8 08:30:37 10° NNE 08:34:09 41° E 08:35:08 34° SE visible
20 Jul 4.3 08:21:56 10° NE 08:25:15 30° E 08:26:06 27° SE visible
21 Jul 4.8 08:13:23 10° NE 08:16:20 22° E 08:17:03 21° ESE visible
21 Jul 4.8 09:49:39 10° WNW 09:50:29 11° WNW 09:51:20 10° W visible
22 Jul 5.3 08:05:02 10° ENE 08:07:24 16° E 08:08:00 16° ESE visible
22 Jul 4.5 09:39:28 10° NW 09:41:35 15° WNW 09:43:24 11° WSW visible
23 Jul 5.7 07:57:02 10° ENE 07:58:28 12° E 07:58:56 12° ESE visible
23 Jul 4.1 09:29:55 10° NNW 09:32:41 20° WNW 09:34:19 15° WSW visible
24 Jul 3.7 09:20:33 10° NNW 09:23:45 27° WNW 09:25:15 21° WSW visible
25 Jul 3.3 09:11:19 10° N 09:14:48 37° WNW 09:16:09 27° WSW visible
26 Jul 2.8 09:02:11 10° N 09:05:50 53° WNW 09:07:03 36° SW visible
27 Jul 2.5 08:53:07 10° N 08:56:52 77° W 08:57:55 45° SSW visible
